Year,Month,Day,Hour,Minute,Value (Times are PST for temperature in C)
2008,06,17,07,02,10.10
2008,06,17,07,03,10.10
2008,06,17,07,04,10.20
2008,06,17,07,05,10.20
2008,06,17,07,06,10.20
2008,06,17,07,07,10.20
2008,06,17,07,08,10.20
2008,06,17,07,09,10.30
2008,06,17,07,10,10.30
2008,06,17,07,11,10.30
2008,06,17,07,12,10.30
2008,06,17,07,13,10.30
2008,06,17,07,14,10.30
2008,06,17,07,15,10.40
2008,06,17,07,16,10.40
2008,06,17,07,17,10.50
2008,06,17,07,18,10.50
2008,06,17,07,19,10.60
2008,06,17,07,20,10.60
2008,06,17,07,21,10.60
2008,06,17,07,22,10.60
2008,06,17,07,23,10.70
2008,06,17,07,24,10.70
2008,06,17,07,25,10.80
2008,06,17,07,26,10.80
2008,06,17,07,27,10.80
2008,06,17,07,28,10.80
2008,06,17,07,29,10.80
2008,06,17,07,30,10.80
2008,06,17,07,31,10.90
2008,06,17,07,32,10.90
2008,06,17,07,33,10.90
2008,06,17,07,34,11.00
2008,06,17,07,35,11.00
2008,06,17,07,36,11.00
2008,06,17,07,37,11.00
2008,06,17,07,38,11.00
2008,06,17,07,39,11.00
2008,06,17,07,40,11.00
2008,06,17,07,41,10.90
2008,06,17,07,42,10.90
2008,06,17,07,43,10.90
2008,06,17,07,44,10.90
2008,06,17,07,45,10.90
2008,06,17,07,46,10.90
2008,06,17,07,47,10.90
2008,06,17,07,48,10.90
2008,06,17,07,49,10.90
2008,06,17,07,50,10.90
2008,06,17,07,51,10.90
2008,06,17,07,52,10.80
2008,06,17,07,53,10.80
2008,06,17,07,54,10.80
2008,06,17,07,55,10.90
2008,06,17,07,56,10.90
2008,06,17,07,57,10.90
2008,06,17,07,58,10.90
2008,06,17,07,59,10.90
2008,06,17,08,00,10.90
2008,06,17,08,01,11.00
2008,06,17,08,02,11.00
2008,06,17,08,03,11.10
2008,06,17,08,04,11.10
2008,06,17,08,05,11.10
2008,06,17,08,06,11.10
2008,06,17,08,07,11.10
2008,06,17,08,08,11.10
2008,06,17,08,09,11.10
2008,06,17,08,10,11.20
2008,06,17,08,11,11.20
2008,06,17,08,12,11.20
2008,06,17,08,13,11.30
2008,06,17,08,14,11.30
2008,06,17,08,15,11.30
2008,06,17,08,16,11.30
2008,06,17,08,17,11.30
2008,06,17,08,18,11.30
2008,06,17,08,19,11.30
2008,06,17,08,20,11.30
2008,06,17,08,21,11.30
2008,06,17,08,22,11.30
2008,06,17,08,23,11.30
2008,06,17,08,24,11.40
2008,06,17,08,25,11.40
2008,06,17,08,26,11.40
2008,06,17,08,27,11.40
2008,06,17,08,28,11.40
2008,06,17,08,29,11.40
2008,06,17,08,30,11.30
2008,06,17,08,31,11.30
2008,06,17,08,32,11.30
2008,06,17,08,33,11.30
2008,06,17,08,34,11.30
2008,06,17,08,35,11.30
2008,06,17,08,36,11.30
2008,06,17,08,37,11.40
2008,06,17,08,38,11.50
2008,06,17,08,39,11.50
2008,06,17,08,40,11.60
2008,06,17,08,41,11.70
2008,06,17,08,42,11.80
2008,06,17,08,43,11.80
2008,06,17,08,44,11.80
2008,06,17,08,45,11.80
2008,06,17,08,46,11.80
2008,06,17,08,47,11.90
2008,06,17,08,48,12.00
2008,06,17,08,49,12.10
2008,06,17,08,50,12.20
2008,06,17,08,51,12.30
2008,06,17,08,52,12.40
2008,06,17,08,53,12.50
2008,06,17,08,54,12.50
2008,06,17,08,55,12.60
2008,06,17,08,56,12.60
2008,06,17,08,57,12.60
2008,06,17,08,58,12.50
2008,06,17,08,59,12.50
2008,06,17,09,00,12.40
2008,06,17,09,01,12.40
2008,06,17,09,02,12.40
2008,06,17,09,03,12.40
2008,06,17,09,04,12.40
2008,06,17,09,05,12.40
2008,06,17,09,06,12.50
2008,06,17,09,07,12.50
2008,06,17,09,08,12.60
2008,06,17,09,09,12.70
2008,06,17,09,10,12.70
2008,06,17,09,11,12.70
2008,06,17,09,12,12.70
2008,06,17,09,13,12.70
2008,06,17,09,14,12.70
2008,06,17,09,15,12.70
2008,06,17,09,16,12.80
2008,06,17,09,17,12.80
2008,06,17,09,18,12.90
2008,06,17,09,19,13.10
2008,06,17,09,20,13.30
2008,06,17,09,21,13.50
2008,06,17,09,22,13.60
2008,06,17,09,23,13.70
2008,06,17,09,24,13.70
2008,06,17,09,25,13.70
2008,06,17,09,26,13.60
2008,06,17,09,27,13.50
2008,06,17,09,28,13.40
2008,06,17,09,29,13.40
2008,06,17,09,30,13.50
2008,06,17,09,31,13.50
2008,06,17,09,32,13.60
2008,06,17,09,33,13.70
2008,06,17,09,34,13.80
2008,06,17,09,35,13.90
2008,06,17,09,36,13.90
2008,06,17,09,37,13.90
2008,06,17,09,38,13.90
2008,06,17,09,39,13.80
2008,06,17,09,40,13.70
2008,06,17,09,41,13.70
2008,06,17,09,42,13.70
2008,06,17,09,43,13.60
2008,06,17,09,44,13.60
2008,06,17,09,45,13.60
2008,06,17,09,46,13.60
2008,06,17,09,47,13.60
2008,06,17,09,48,13.50
2008,06,17,09,49,13.50
2008,06,17,09,50,13.50
2008,06,17,09,51,13.50
2008,06,17,09,52,13.50
2008,06,17,09,53,13.50
2008,06,17,09,54,13.40
2008,06,17,09,55,13.40
2008,06,17,09,56,13.30
2008,06,17,09,57,13.10
2008,06,17,09,58,13.00
2008,06,17,09,59,13.00
2008,06,17,10,00,12.90
2008,06,17,10,01,12.90
2008,06,17,10,02,12.80
2008,06,17,10,03,12.80
2008,06,17,10,04,12.80
2008,06,17,10,05,12.70
2008,06,17,10,06,12.70
2008,06,17,10,07,12.80
2008,06,17,10,08,12.80
2008,06,17,10,09,12.80
2008,06,17,10,10,12.90
2008,06,17,10,11,12.90
2008,06,17,10,12,12.90
2008,06,17,10,13,12.90
2008,06,17,10,14,13.00
2008,06,17,10,15,13.10
2008,06,17,10,16,13.10
2008,06,17,10,17,13.10
2008,06,17,10,18,13.00
2008,06,17,10,19,13.00
2008,06,17,10,20,12.90
2008,06,17,10,21,12.80
2008,06,17,10,22,12.80
2008,06,17,10,23,12.80
2008,06,17,10,24,12.80
2008,06,17,10,25,12.70
2008,06,17,10,26,12.60
2008,06,17,10,27,12.60
2008,06,17,10,28,12.50
2008,06,17,10,29,12.50
2008,06,17,10,30,12.50
2008,06,17,10,31,12.40
2008,06,17,10,32,12.40
2008,06,17,10,33,12.50
2008,06,17,10,34,12.60
2008,06,17,10,35,12.50
2008,06,17,10,36,12.50
2008,06,17,10,37,12.50
2008,06,17,10,38,12.50
2008,06,17,10,39,12.40
2008,06,17,10,40,12.40
2008,06,17,10,41,12.50
2008,06,17,10,42,12.60
2008,06,17,10,43,12.70
2008,06,17,10,44,12.80
2008,06,17,10,45,12.80
2008,06,17,10,46,12.90
2008,06,17,10,47,12.80
2008,06,17,10,48,12.80
2008,06,17,10,49,12.80
2008,06,17,10,50,12.80
2008,06,17,10,51,12.90
2008,06,17,10,52,12.90
2008,06,17,10,53,12.90
2008,06,17,10,54,12.80
2008,06,17,10,55,12.80
2008,06,17,10,56,12.70
2008,06,17,10,57,12.70
2008,06,17,10,58,12.80
2008,06,17,10,59,12.80
2008,06,17,11,00,12.80
2008,06,17,11,01,12.70
2008,06,17,11,02,12.60
2008,06,17,11,03,12.60
2008,06,17,11,04,12.50
2008,06,17,11,05,12.50
2008,06,17,11,06,12.50
2008,06,17,11,07,12.50
2008,06,17,11,08,12.40
2008,06,17,11,09,12.40
2008,06,17,11,10,12.50
2008,06,17,11,11,12.40
2008,06,17,11,12,12.20
2008,06,17,11,13,12.20
2008,06,17,11,14,12.30
2008,06,17,11,15,12.30
2008,06,17,11,16,12.40
2008,06,17,11,17,12.50
2008,06,17,11,18,12.60
2008,06,17,11,19,12.80
2008,06,17,11,20,12.80
2008,06,17,11,21,12.90
2008,06,17,11,22,12.90
2008,06,17,11,23,12.70
2008,06,17,11,24,12.60
2008,06,17,11,25,12.60
2008,06,17,11,26,12.60
2008,06,17,11,27,12.50
2008,06,17,11,28,12.50
2008,06,17,11,29,12.40
2008,06,17,11,30,12.40
2008,06,17,11,31,12.30
2008,06,17,11,32,12.30
2008,06,17,11,33,12.40
2008,06,17,11,34,12.20
2008,06,17,11,35,12.00
2008,06,17,11,36,11.90
2008,06,17,11,37,11.80
2008,06,17,11,38,11.90
2008,06,17,11,39,12.00
2008,06,17,11,40,12.00
2008,06,17,11,41,11.90
2008,06,17,11,42,11.80
2008,06,17,11,43,11.80
2008,06,17,11,44,11.80
2008,06,17,11,45,11.70
2008,06,17,11,46,11.70
2008,06,17,11,47,11.60
2008,06,17,11,48,11.70
2008,06,17,11,49,11.70
2008,06,17,11,50,11.60
2008,06,17,11,51,11.50
2008,06,17,11,52,11.50
2008,06,17,11,53,11.40
2008,06,17,11,54,11.40
2008,06,17,11,55,11.40
2008,06,17,11,56,11.40
2008,06,17,11,57,11.50
2008,06,17,11,58,11.50
2008,06,17,11,59,11.40
2008,06,17,12,00,11.40
2008,06,17,12,01,11.40
2008,06,17,12,02,11.40
2008,06,17,12,03,11.60
2008,06,17,12,04,11.70
2008,06,17,12,05,11.70
2008,06,17,12,06,11.60
2008,06,17,12,07,11.50
2008,06,17,12,08,11.40
2008,06,17,12,09,11.40
2008,06,17,12,10,11.40
2008,06,17,12,11,11.40
2008,06,17,12,12,11.40
2008,06,17,12,13,11.40
2008,06,17,12,14,11.40
2008,06,17,12,15,11.40
2008,06,17,12,16,11.40
2008,06,17,12,17,11.40
2008,06,17,12,18,11.30
2008,06,17,12,19,11.40
2008,06,17,12,20,11.50
2008,06,17,12,21,11.70
2008,06,17,12,22,11.90
2008,06,17,12,23,11.90
2008,06,17,12,24,11.90
2008,06,17,12,25,11.80
2008,06,17,12,26,11.70
2008,06,17,12,27,11.50
2008,06,17,12,28,11.40
2008,06,17,12,29,11.50
2008,06,17,12,30,11.60
2008,06,17,12,31,11.70
2008,06,17,12,32,11.80
2008,06,17,12,33,11.90
2008,06,17,12,34,11.90
2008,06,17,12,35,11.80
2008,06,17,12,36,11.80
2008,06,17,12,37,11.80
2008,06,17,12,38,11.70
2008,06,17,12,39,11.70
2008,06,17,12,40,11.60
2008,06,17,12,41,11.60
2008,06,17,12,42,11.60
2008,06,17,12,43,11.70
2008,06,17,12,44,11.50
2008,06,17,12,45,11.50
2008,06,17,12,46,11.40
2008,06,17,12,47,11.40
2008,06,17,12,48,11.40
2008,06,17,12,49,11.40
2008,06,17,12,50,11.50
2008,06,17,12,51,11.50
2008,06,17,12,52,11.60
2008,06,17,12,53,11.60
2008,06,17,12,54,11.70
2008,06,17,12,55,11.80
2008,06,17,12,56,11.90
2008,06,17,12,57,12.00
2008,06,17,12,58,12.10
2008,06,17,12,59,12.10
2008,06,17,13,00,12.00
2008,06,17,13,01,12.00
2008,06,17,13,02,11.80
2008,06,17,13,03,11.70
2008,06,17,13,04,11.70
2008,06,17,13,05,11.80
2008,06,17,13,06,11.80
2008,06,17,13,07,11.90
2008,06,17,13,08,11.90
2008,06,17,13,09,11.80
2008,06,17,13,10,11.80
2008,06,17,13,11,11.80
2008,06,17,13,12,11.80
2008,06,17,13,13,11.70
2008,06,17,13,14,11.70
2008,06,17,13,15,11.70
2008,06,17,13,16,11.70
2008,06,17,13,17,11.60
2008,06,17,13,18,11.60
2008,06,17,13,19,11.60
2008,06,17,13,20,11.60
2008,06,17,13,21,11.70
2008,06,17,13,22,11.70
2008,06,17,13,23,11.70
2008,06,17,13,24,11.70
2008,06,17,13,25,11.70
2008,06,17,13,26,11.70
2008,06,17,13,27,11.70
2008,06,17,13,28,11.60
2008,06,17,13,29,11.60
2008,06,17,13,30,11.50
2008,06,17,13,31,11.40
2008,06,17,13,32,11.40
2008,06,17,13,33,11.50
2008,06,17,13,34,11.50
2008,06,17,13,35,11.60
2008,06,17,13,36,11.70
2008,06,17,13,37,11.70
2008,06,17,13,38,11.70
2008,06,17,13,39,11.60
2008,06,17,13,40,11.60
2008,06,17,13,41,11.50
2008,06,17,13,42,11.50
2008,06,17,13,43,11.60
2008,06,17,13,44,11.70
2008,06,17,13,45,11.70
2008,06,17,13,46,11.70
2008,06,17,13,47,11.70
2008,06,17,13,48,11.60
2008,06,17,13,49,11.60
2008,06,17,13,50,11.50
2008,06,17,13,51,11.50
2008,06,17,13,52,11.50
2008,06,17,13,53,11.50
2008,06,17,13,54,11.60
2008,06,17,13,55,11.70
2008,06,17,13,56,11.80
2008,06,17,13,57,11.90
2008,06,17,13,58,11.90
2008,06,17,13,59,12.00
2008,06,17,14,00,11.90
2008,06,17,14,01,11.90
2008,06,17,14,02,11.90
2008,06,17,14,03,11.90
2008,06,17,14,04,11.90
2008,06,17,14,05,11.90
2008,06,17,14,06,11.90
2008,06,17,14,07,12.00
2008,06,17,14,08,12.10
2008,06,17,14,09,12.20
2008,06,17,14,10,12.40
2008,06,17,14,11,12.50
2008,06,17,14,12,12.60
2008,06,17,14,13,12.80
2008,06,17,14,14,12.80
2008,06,17,14,15,12.70
2008,06,17,14,16,12.60
2008,06,17,14,17,12.50
2008,06,17,14,18,12.50
2008,06,17,14,19,12.50
2008,06,17,14,20,12.60
2008,06,17,14,21,12.60
2008,06,17,14,22,12.70
2008,06,17,14,23,12.70
2008,06,17,14,24,12.80
2008,06,17,14,25,12.80
2008,06,17,14,26,12.90
2008,06,17,14,27,12.90
2008,06,17,14,28,13.00
2008,06,17,14,29,13.10
2008,06,17,14,30,13.20
2008,06,17,14,31,13.20
2008,06,17,14,32,13.10
2008,06,17,14,33,13.10
2008,06,17,14,34,13.10
2008,06,17,14,35,13.20
2008,06,17,14,36,13.20
2008,06,17,14,37,13.30
2008,06,17,14,38,13.30
2008,06,17,14,39,13.20
2008,06,17,14,40,13.20
2008,06,17,14,41,13.20
2008,06,17,14,42,13.20
2008,06,17,14,43,13.30
2008,06,17,14,44,13.30
2008,06,17,14,45,13.20
2008,06,17,14,46,13.20
2008,06,17,14,47,13.30
2008,06,17,14,48,13.40
2008,06,17,14,49,13.40
2008,06,17,14,50,13.50
2008,06,17,14,51,13.60
2008,06,17,14,52,13.60
2008,06,17,14,53,13.50
2008,06,17,14,54,13.60
2008,06,17,14,55,13.60
2008,06,17,14,56,13.60
2008,06,17,14,57,13.60
2008,06,17,14,58,13.60
2008,06,17,14,59,13.70
2008,06,17,15,00,13.70
2008,06,17,15,01,13.60
2008,06,17,15,02,13.60
2008,06,17,15,03,13.50
2008,06,17,15,04,13.50
2008,06,17,15,05,13.50
2008,06,17,15,06,13.70
2008,06,17,15,07,13.60
2008,06,17,15,08,13.60
2008,06,17,15,09,13.50
2008,06,17,15,10,13.40
2008,06,17,15,11,13.30
2008,06,17,15,12,13.30
2008,06,17,15,13,13.20
2008,06,17,15,14,13.20
2008,06,17,15,15,13.10
2008,06,17,15,16,13.00
2008,06,17,15,17,13.00
2008,06,17,15,18,12.90
2008,06,17,15,19,12.80
2008,06,17,15,20,12.70
2008,06,17,15,21,12.70
2008,06,17,15,22,12.70
2008,06,17,15,23,12.70
2008,06,17,15,24,12.70
2008,06,17,15,25,12.70
2008,06,17,15,26,12.70
2008,06,17,15,27,12.80
2008,06,17,15,28,12.90
2008,06,17,15,29,13.00
2008,06,17,15,30,13.10
2008,06,17,15,31,13.20
2008,06,17,15,32,13.30
2008,06,17,15,33,13.30
2008,06,17,15,34,13.30
2008,06,17,15,35,13.30
2008,06,17,15,36,13.30
2008,06,17,15,37,13.30
2008,06,17,15,38,13.30
2008,06,17,15,39,13.40
2008,06,17,15,40,13.40
2008,06,17,15,41,13.50
2008,06,17,15,42,13.60
2008,06,17,15,43,13.60
2008,06,17,15,44,13.70
2008,06,17,15,45,13.90
2008,06,17,15,46,13.90
2008,06,17,15,47,13.90
2008,06,17,15,48,13.80
2008,06,17,15,49,13.80
2008,06,17,15,50,13.70
2008,06,17,15,51,13.70
2008,06,17,15,52,13.70
2008,06,17,15,53,13.80
2008,06,17,15,54,13.80
2008,06,17,15,55,13.90
2008,06,17,15,56,14.00
2008,06,17,15,57,14.20
2008,06,17,15,58,14.30
2008,06,17,15,59,14.40
2008,06,17,16,00,14.50
2008,06,17,16,01,14.50
2008,06,17,16,02,14.50
2008,06,17,16,03,14.60
2008,06,17,16,04,14.60
2008,06,17,16,05,14.70
2008,06,17,16,06,14.70
2008,06,17,16,07,14.80
2008,06,17,16,08,14.90
2008,06,17,16,09,15.00
2008,06,17,16,10,15.00
2008,06,17,16,11,15.00
2008,06,17,16,12,15.00
2008,06,17,16,13,15.00
2008,06,17,16,14,15.00
2008,06,17,16,15,15.00
2008,06,17,16,16,15.00
2008,06,17,16,17,14.80
2008,06,17,16,18,14.70
2008,06,17,16,19,14.60
2008,06,17,16,20,14.50
2008,06,17,16,21,14.40
2008,06,17,16,22,14.30
2008,06,17,16,23,14.30
2008,06,17,16,24,14.30
2008,06,17,16,25,14.20
2008,06,17,16,26,14.20
2008,06,17,16,27,14.10
2008,06,17,16,28,14.10
2008,06,17,16,29,14.20
2008,06,17,16,30,14.20
2008,06,17,16,31,14.20
2008,06,17,16,32,14.20
2008,06,17,16,33,14.10
2008,06,17,16,34,14.10
2008,06,17,16,35,14.10
2008,06,17,16,36,14.10
2008,06,17,16,37,14.10
2008,06,17,16,38,14.00
2008,06,17,16,39,14.00
2008,06,17,16,40,14.10
2008,06,17,16,41,14.00
2008,06,17,16,42,14.00
2008,06,17,16,43,14.00
2008,06,17,16,44,14.00
2008,06,17,16,45,14.00
2008,06,17,16,46,14.00
2008,06,17,16,47,14.00
2008,06,17,16,48,14.00
2008,06,17,16,49,14.00
2008,06,17,16,50,13.90
2008,06,17,16,51,13.90
2008,06,17,16,52,13.80
2008,06,17,16,53,13.80
2008,06,17,16,54,13.80
2008,06,17,16,55,13.80
2008,06,17,16,56,13.80
2008,06,17,16,57,13.80
2008,06,17,16,58,13.90
2008,06,17,16,59,14.00
2008,06,17,17,00,14.10
2008,06,17,17,01,14.20
2008,06,17,17,02,14.30
2008,06,17,17,03,14.30
2008,06,17,17,04,14.30
2008,06,17,17,05,14.30
2008,06,17,17,06,14.20
2008,06,17,17,07,14.10
2008,06,17,17,08,14.00
2008,06,17,17,09,13.90
2008,06,17,17,10,13.80
2008,06,17,17,11,13.70
2008,06,17,17,12,13.70
2008,06,17,17,13,13.70
2008,06,17,17,14,13.70
2008,06,17,17,15,13.70
2008,06,17,17,16,13.70
2008,06,17,17,17,13.70
2008,06,17,17,18,13.70
2008,06,17,17,19,13.70
2008,06,17,17,20,13.70
2008,06,17,17,21,13.70
2008,06,17,17,22,13.60
2008,06,17,17,23,13.60
2008,06,17,17,24,13.60
2008,06,17,17,25,13.60
2008,06,17,17,26,13.60
2008,06,17,17,27,13.60
2008,06,17,17,28,13.70
2008,06,17,17,29,13.70
2008,06,17,17,30,13.70
2008,06,17,17,31,13.70
2008,06,17,17,32,13.70
2008,06,17,17,33,13.70
2008,06,17,17,34,13.70
2008,06,17,17,35,13.70
2008,06,17,17,36,13.80
2008,06,17,17,37,13.80
2008,06,17,17,38,13.80
2008,06,17,17,39,13.80
2008,06,17,17,40,13.80
2008,06,17,17,41,13.80
2008,06,17,17,42,13.80
2008,06,17,17,43,13.80
2008,06,17,17,44,13.80
2008,06,17,17,45,13.90
2008,06,17,17,46,13.90
2008,06,17,17,47,13.90
2008,06,17,17,48,13.90
2008,06,17,17,49,13.90
2008,06,17,17,50,13.90
2008,06,17,17,51,13.90
2008,06,17,17,52,13.90
2008,06,17,17,53,14.00
2008,06,17,17,54,14.00
2008,06,17,17,55,14.00
2008,06,17,17,56,14.00
2008,06,17,17,57,14.00
2008,06,17,17,58,14.00
2008,06,17,17,59,14.10
2008,06,17,18,00,14.10
2008,06,17,18,01,14.00
2008,06,17,18,02,14.00
2008,06,17,18,03,14.00
2008,06,17,18,04,14.00
2008,06,17,18,05,14.00
2008,06,17,18,06,14.10
2008,06,17,18,07,14.10
2008,06,17,18,08,14.00
2008,06,17,18,09,14.00
2008,06,17,18,10,13.90
2008,06,17,18,11,13.90
2008,06,17,18,12,13.90
2008,06,17,18,13,13.90
2008,06,17,18,14,13.90
2008,06,17,18,15,13.90
2008,06,17,18,16,13.90
2008,06,17,18,17,14.00
2008,06,17,18,18,14.10
2008,06,17,18,19,14.10
2008,06,17,18,20,14.10
2008,06,17,18,21,14.20
2008,06,17,18,22,14.20
2008,06,17,18,23,14.20
2008,06,17,18,24,14.20
2008,06,17,18,25,14.20
2008,06,17,18,26,14.30
2008,06,17,18,27,14.30
2008,06,17,18,28,14.40
2008,06,17,18,29,14.40
2008,06,17,18,30,14.40
2008,06,17,18,31,14.50
2008,06,17,18,32,14.50
2008,06,17,18,33,14.50
2008,06,17,18,34,14.40
2008,06,17,18,35,14.40
2008,06,17,18,36,14.40
2008,06,17,18,37,14.30
2008,06,17,18,38,14.30
2008,06,17,18,39,14.30
2008,06,17,18,40,14.20
2008,06,17,18,41,14.20
2008,06,17,18,42,14.20
2008,06,17,18,43,14.20
2008,06,17,18,44,14.20
2008,06,17,18,45,14.10
2008,06,17,18,46,14.10
2008,06,17,18,47,14.10
2008,06,17,18,48,14.10
2008,06,17,18,49,14.10
2008,06,17,18,50,14.10
2008,06,17,18,51,14.00
2008,06,17,18,52,14.00
2008,06,17,18,53,14.00
2008,06,17,18,54,14.00
2008,06,17,18,55,14.00
2008,06,17,18,56,14.00
2008,06,17,18,57,14.00
2008,06,17,18,58,14.00
2008,06,17,18,59,13.90
2008,06,17,19,00,13.90
2008,06,17,19,01,13.80
2008,06,17,19,02,13.80
2008,06,17,19,03,13.80
2008,06,17,19,04,13.80
2008,06,17,19,05,13.80
2008,06,17,19,06,13.80
2008,06,17,19,07,13.70
2008,06,17,19,08,13.70
2008,06,17,19,09,13.60
2008,06,17,19,10,13.60
2008,06,17,19,11,13.60
2008,06,17,19,12,13.50
2008,06,17,19,13,13.50
2008,06,17,19,14,13.50
2008,06,17,19,15,13.50
2008,06,17,19,16,13.50
2008,06,17,19,17,13.50
2008,06,17,19,18,13.40
2008,06,17,19,19,13.40
2008,06,17,19,20,13.50
2008,06,17,19,21,13.50
2008,06,17,19,22,13.40
2008,06,17,19,23,13.40
2008,06,17,19,24,13.40
2008,06,17,19,25,13.40
2008,06,17,19,26,13.40
2008,06,17,19,27,13.40
2008,06,17,19,28,13.40
2008,06,17,19,29,13.40
2008,06,17,19,30,13.40
2008,06,17,19,31,13.40
2008,06,17,19,32,13.40
2008,06,17,19,33,13.40
2008,06,17,19,34,13.40
2008,06,17,19,35,13.40
2008,06,17,19,36,13.40
2008,06,17,19,37,13.40
2008,06,17,19,38,13.40
2008,06,17,19,39,13.40
2008,06,17,19,40,13.40
2008,06,17,19,41,13.40
2008,06,17,19,42,13.40
2008,06,17,19,43,13.50
2008,06,17,19,44,13.50
2008,06,17,19,45,13.60
2008,06,17,19,46,13.60
2008,06,17,19,47,13.50
2008,06,17,19,48,13.50
2008,06,17,19,49,13.50
2008,06,17,19,50,13.50
2008,06,17,19,51,13.50
2008,06,17,19,52,13.50
2008,06,17,19,53,13.40
2008,06,17,19,54,13.50
2008,06,17,19,55,13.50
2008,06,17,19,56,13.60
2008,06,17,19,57,13.60
2008,06,17,19,58,13.70
2008,06,17,19,59,13.70
2008,06,17,20,00,13.70
2008,06,17,20,01,13.70
2008,06,17,20,02,13.70
2008,06,17,20,03,13.70
2008,06,17,20,04,13.70
2008,06,17,20,05,13.70
2008,06,17,20,06,13.70
2008,06,17,20,07,13.70
2008,06,17,20,08,13.60
2008,06,17,20,09,13.50
2008,06,17,20,10,13.50
2008,06,17,20,11,13.40
2008,06,17,20,12,13.40
2008,06,17,20,13,13.40
2008,06,17,20,14,13.30
2008,06,17,20,15,13.30
2008,06,17,20,16,13.30
2008,06,17,20,17,13.30
2008,06,17,20,18,13.30
2008,06,17,20,19,13.40
2008,06,17,20,20,13.40
2008,06,17,20,21,13.40
2008,06,17,20,22,13.40
2008,06,17,20,23,13.40
2008,06,17,20,24,13.40
2008,06,17,20,25,13.30
2008,06,17,20,26,13.30
2008,06,17,20,27,13.30
2008,06,17,20,28,13.20
2008,06,17,20,29,13.20
2008,06,17,20,30,13.20
2008,06,17,20,31,13.20
2008,06,17,20,32,13.20
2008,06,17,20,33,13.20
2008,06,17,20,34,13.20
2008,06,17,20,35,13.20
2008,06,17,20,36,13.20
2008,06,17,20,37,13.10
2008,06,17,20,38,13.10
2008,06,17,20,39,13.00
2008,06,17,20,40,13.00
2008,06,17,20,41,12.90
2008,06,17,20,42,12.90
2008,06,17,20,43,12.80
2008,06,17,20,44,12.80
2008,06,17,20,45,12.80
2008,06,17,20,46,12.80
2008,06,17,20,47,12.80
2008,06,17,20,48,12.70
2008,06,17,20,49,12.70
2008,06,17,20,50,12.80
2008,06,17,20,51,12.80
2008,06,17,20,52,12.70
2008,06,17,20,53,12.70
2008,06,17,20,54,12.70
2008,06,17,20,55,12.70
2008,06,17,20,56,12.70
2008,06,17,20,57,12.70
2008,06,17,20,58,12.70
2008,06,17,20,59,12.70
2008,06,17,21,00,12.70
2008,06,17,21,01,12.60
2008,06,17,21,02,12.60
2008,06,17,21,03,12.60
2008,06,17,21,04,12.60
2008,06,17,21,05,12.60
2008,06,17,21,06,12.60
2008,06,17,21,07,12.60
2008,06,17,21,08,12.50
2008,06,17,21,09,12.50
2008,06,17,21,10,12.50
2008,06,17,21,11,12.50
2008,06,17,21,12,12.50
2008,06,17,21,13,12.40
2008,06,17,21,14,12.40
2008,06,17,21,15,12.40
2008,06,17,21,16,12.40
2008,06,17,21,17,12.40
2008,06,17,21,18,12.30
2008,06,17,21,19,12.30
2008,06,17,21,20,12.30
2008,06,17,21,21,12.30
2008,06,17,21,22,12.30
2008,06,17,21,23,12.30
2008,06,17,21,24,12.30
2008,06,17,21,25,12.20
2008,06,17,21,26,12.20
2008,06,17,21,27,12.20
2008,06,17,21,28,12.20
2008,06,17,21,29,12.20
2008,06,17,21,30,12.20
2008,06,17,21,31,12.20
2008,06,17,21,32,12.20
2008,06,17,21,33,12.20
2008,06,17,21,34,12.20
2008,06,17,21,35,12.20
2008,06,17,21,36,12.20
2008,06,17,21,37,12.10
2008,06,17,21,38,12.10
2008,06,17,21,39,12.10
2008,06,17,21,40,12.10
2008,06,17,21,41,12.10
2008,06,17,21,42,12.10
2008,06,17,21,43,12.10
2008,06,17,21,44,12.10
2008,06,17,21,45,12.10
2008,06,17,21,46,12.00
2008,06,17,21,47,12.00
2008,06,17,21,48,12.00
2008,06,17,21,49,12.00
2008,06,17,21,50,12.00
2008,06,17,21,51,12.00
2008,06,17,21,52,12.00
2008,06,17,21,53,11.90
2008,06,17,21,54,11.90
2008,06,17,21,55,11.90
2008,06,17,21,56,11.90
2008,06,17,21,57,11.90
2008,06,17,21,58,11.90
2008,06,17,21,59,11.90
2008,06,17,22,00,11.80
2008,06,17,22,01,11.80
2008,06,17,22,02,11.80
2008,06,17,22,03,11.80
2008,06,17,22,04,11.80
2008,06,17,22,05,11.80
2008,06,17,22,06,11.80
2008,06,17,22,07,11.80
2008,06,17,22,08,11.80
2008,06,17,22,09,11.80
2008,06,17,22,10,11.80
2008,06,17,22,11,11.80
2008,06,17,22,12,11.80
2008,06,17,22,13,11.70
2008,06,17,22,14,11.70
2008,06,17,22,15,11.70
2008,06,17,22,16,11.70
2008,06,17,22,17,11.70
2008,06,17,22,18,11.70
2008,06,17,22,19,11.70
2008,06,17,22,20,11.70
2008,06,17,22,21,11.70
2008,06,17,22,22,11.60
2008,06,17,22,23,11.60
2008,06,17,22,24,11.60
2008,06,17,22,25,11.60
2008,06,17,22,26,11.60
2008,06,17,22,27,11.50
2008,06,17,22,28,11.50
2008,06,17,22,29,11.50
2008,06,17,22,30,11.50
2008,06,17,22,31,11.50
2008,06,17,22,32,11.40
2008,06,17,22,33,11.40
2008,06,17,22,34,11.40
2008,06,17,22,35,11.40
2008,06,17,22,36,11.40
2008,06,17,22,37,11.30
2008,06,17,22,38,11.30
2008,06,17,22,39,11.30
2008,06,17,22,40,11.30
2008,06,17,22,41,11.30
2008,06,17,22,42,11.30
2008,06,17,22,43,11.20
2008,06,17,22,44,11.20
2008,06,17,22,45,11.20
2008,06,17,22,46,11.20
2008,06,17,22,47,11.20
2008,06,17,22,48,11.20
2008,06,17,22,49,11.10
2008,06,17,22,50,11.10
2008,06,17,22,51,11.10
2008,06,17,22,52,11.10
2008,06,17,22,53,11.10
2008,06,17,22,54,11.10
2008,06,17,22,55,11.10
2008,06,17,22,56,11.00
2008,06,17,22,57,11.00
2008,06,17,22,58,11.00
2008,06,17,22,59,11.00
2008,06,17,23,00,11.00
2008,06,17,23,01,10.90
2008,06,17,23,02,10.90
2008,06,17,23,03,10.90
2008,06,17,23,04,10.90
2008,06,17,23,05,10.90
2008,06,17,23,06,10.90
2008,06,17,23,07,10.80
2008,06,17,23,08,10.80
2008,06,17,23,09,10.80
2008,06,17,23,10,10.80
2008,06,17,23,11,10.80
2008,06,17,23,12,10.80
2008,06,17,23,13,10.80
2008,06,17,23,14,10.80
2008,06,17,23,15,10.80
2008,06,17,23,16,10.80
2008,06,17,23,17,10.80
2008,06,17,23,18,10.70
2008,06,17,23,19,10.70
2008,06,17,23,20,10.70
2008,06,17,23,21,10.70
2008,06,17,23,22,10.70
2008,06,17,23,23,10.70
2008,06,17,23,24,10.70
2008,06,17,23,25,10.70
2008,06,17,23,26,10.70
2008,06,17,23,27,10.70
2008,06,17,23,28,10.70
2008,06,17,23,29,10.70
2008,06,17,23,30,10.70
2008,06,17,23,31,10.70
2008,06,17,23,32,10.70
2008,06,17,23,33,10.70
2008,06,17,23,34,10.70
2008,06,17,23,35,10.70
2008,06,17,23,36,10.70
2008,06,17,23,37,10.70
2008,06,17,23,38,10.70
2008,06,17,23,39,10.80
2008,06,17,23,40,10.80
2008,06,17,23,41,10.80
2008,06,17,23,42,10.80
2008,06,17,23,43,10.80
2008,06,17,23,44,10.80
2008,06,17,23,45,10.80
2008,06,17,23,46,10.80
2008,06,17,23,47,10.80
2008,06,17,23,48,10.80
2008,06,17,23,49,10.80
2008,06,17,23,50,10.80
2008,06,17,23,51,10.80
2008,06,17,23,52,10.80
2008,06,17,23,53,10.80
2008,06,17,23,54,10.80
2008,06,17,23,55,10.80
2008,06,17,23,56,10.80
2008,06,17,23,57,10.80
2008,06,17,23,58,10.70
2008,06,17,23,59,10.70
